Location: Foligno
(42.9600°N, 12.7050°E)
Time: 19:45:43
(UTC+02:00)

ISS - Pass Details

Date: 19 May 2018
Orbit: 402 x 407 km, 51.6° (Epoch: 27 May)

Event Time Altitude Azimuth Distance (km) Brightness Sun altitude
Exits shadow 02:29:57 - 308° (NW) 1,732 -0.4 -24.4°
Reaches altitude 10° 02:30:51 10° 318° (NW) 1,458 -0.7 -24.3°
Maximum altitude 02:33:10 18° 3° (N) 1,085 -0.9 -24.2°
Drops below altitude 10° 02:35:28 10° 48° (NE) 1,458 -0.1 -24.0°
Sets 02:38:02 0° 69° (ENE) 2,317 0.7 -23.8°
